Location: Faicchio
(41.2833°N, 14.4833°E)
Time: 06:22:59
(UTC+00:00)

ADEOS II - Pass Details

Date: 15 June 2025
Orbit: 794 x 795 km, 98.7° (Epoch: 16 July)

Event Time Altitude Azimuth Distance (km) Brightness Sun altitude
Rises 00:49:10 0° 25° (NNE) 3,304 6.9 -20.8°
Reaches altitude 10° 00:51:50 10° 37° (NE) 2,369 5.7 -20.6°
Maximum altitude 00:56:17 28° 95° (E) 1,467 3.6 -20.2°
Enters shadow 00:59:50 14° 147° (SSE) 2,088 4.0 -19.9°
